This is the latest recevied weather packets stored in our database for station/object EA5EN-10. If no packets are shown the sender has not sent any weather packets the latest 1 day(s).
| Time | Temp. | Humidity | Pressure | Rain* | Wind** | Luminosity | Snow |
|---|---|---|---|---|---|---|---|
| 1788623199 | 32.22° C | 43% | 1032.7 hPa | - | - | - | - |
| 1788621084 | 32.22° C | 44% | 1032.6 hPa | - | - | - | - |
| 1788620237 | 31.67° C | 44% | 1032.7 hPa | - | - | - | - |
| 1788620026 | 31.67° C | 44% | 1032.7 hPa | - | - | - | - |
| 1788618968 | 31.67° C | 44% | 1032.8 hPa | - | - | - | - |
| 1788617910 | 31.67° C | 45% | 1032.9 hPa | - | - | - | - |
| 1788616852 | 31.67° C | 46% | 1033.1 hPa | - | - | - | - |
| 1788615801 | 31.11° C | 46% | 1033.2 hPa | - | - | - | - |
| 1788614736 | 31.11° C | 47% | 1033.3 hPa | - | - | - | - |
| 1788613679 | 31.11° C | 47% | 1033.5 hPa | - | - | - | - |
| 1788612621 | 31.11° C | 48% | 1033.6 hPa | - | - | - | - |
| 1788611563 | 30.56° C | 48% | 1033.7 hPa | - | - | - | - |
| 1788609622 | 30.56° C | 49% | 1034.3 hPa | - | - | - | - |
| 1788608389 | 30.56° C | 49% | 1034.4 hPa | - | - | - | - |
| 1788606273 | 30.56° C | 50% | 1034.6 hPa | - | - | - | - |
| 1788605566 | 30° C | 50% | 1034.9 hPa | - | - | - | - |
| 1788603275 | 30° C | 50% | 1035.2 hPa | - | - | - | - |
| 1788602042 | 30° C | 50% | 1035.2 hPa | - | - | - | - |
| 1788601159 | 30° C | 50% | 1035.1 hPa | - | - | - | - |
| 1788599926 | 30° C | 50% | 1035.1 hPa | - | - | - | - |
| 1788598876 | 30° C | 50% | 1035.1 hPa | - | - | - | - |
| 1788597818 | 30° C | 50% | 1034.9 hPa | - | - | - | - |
| 1788596753 | 30° C | 50% | 1034.8 hPa | - | - | - | - |
| 1788595695 | 30° C | 50% | 1034.7 hPa | - | - | - | - |
| 1788593754 | 30.56° C | 50% | 1034.9 hPa | - | - | - | - |
* Rain since midnight (hover to see other rain measurements)
** Current wind speed in m/s (hover to see current wind gust speed)